DW4152 Weather Reports


Display with metric or nautical units.
time (UTC)temp
F
wind
direction
speed
MPH
gust
MPH
rain 1hr
in
rain 24hr
in
rain mn
in
humidity
%
barometer
mb
20260508013017 56 119 0.0 0.0 0.00 0.69 0.62 97 1011.0
20260508011517 56 119 0.0 0.0 0.00 0.69 0.62 97 1010.7
20260508010018 56 119 0.0 0.0 0.00 0.69 0.62 97 1010.6
20260508004515 56 119 0.0 0.0 0.00 0.69 0.62 98 1010.6
20260508003015 56 119 0.0 0.0 0.00 0.69 0.62 98 1010.8
20260508001532 56 119 0.0 0.0 0.00 0.69 0.62 98 1010.7
20260508000013 56 119 0.0 0.0 0.00 0.69 0.62 97 1010.3
20260507234512 56 119 0.0 0.0 0.00 0.69 0.62 97 1009.7
20260507233021 56 119 0.0 0.0 0.00 0.69 0.62 97 1009.7
20260507231513 57 119 0.0 0.0 0.00 0.69 0.62 97 1009.8
20260507230024 56 119 0.0 0.0 0.00 0.69 0.62 97 1009.1
20260507224520 57 119 0.0 0.0 0.00 0.69 0.62 97 1009.4
20260507223011 57 119 0.0 0.0 0.00 0.69 0.62 96 1009.3
20260507221520 57 29 0.0 0.0 0.00 0.69 0.62 97 1008.8
20260507220010 57 25 0.0 0.0 0.00 0.69 0.62 97 1009.0
20260507214508 57 24 0.0 0.0 0.02 0.69 0.62 97 1008.9
20260507213008 57 24 0.0 1.0 0.04 0.69 0.62 97 1009.0
20260507211516 57 360 0.0 7.0 0.04 0.69 0.62 97 1009.0
20260507210007 56 69 0.0 2.0 0.04 0.69 0.62 97 1008.7
20260507204506 56 94 0.0 1.0 0.02 0.67 0.60 97 1008.9
20260507203006 56 94 0.0 4.0 0.00 0.65 0.57 96 1009.1
20260507201505 56 144 0.0 6.0 0.00 0.65 0.57 96 1008.8
20260507200005 57 53 0.0 0.0 0.00 0.65 0.57 97 1008.7
20260507194504 57 53 0.0 0.0 0.00 0.65 0.57 97 1008.8
20260507193005 56 53 0.0 5.0 0.00 0.65 0.57 97 1008.7
20260507191504 57 92 0.0 3.0 0.02 0.65 0.57 98 1008.8
20260507190003 57 105 0.0 2.0 0.02 0.65 0.57 98 1008.9
20260507184501 57 68 0.0 2.0 0.02 0.67 0.57 98 1008.7
20260507183107 56 52 0.0 1.0 0.03 0.67 0.57 98 1008.9
20260507181559 56 84 0.0 2.0 0.01 0.65 0.56 97 1008.8
20260507180059 57 78 0.0 7.0 0.01 0.65 0.56 97 1008.9
20260507174556 58 82 0.0 4.0 0.03 0.65 0.56 97 1009.0
20260507173101 59 84 0.0 2.0 0.05 0.64 0.55 97 1008.8
20260507171554 59 79 0.0 5.0 0.05 0.64 0.55 97 1008.7
20260507170052 62 53 0.0 7.0 0.06 0.64 0.55 97 1008.1
20260507164544 64 87 0.0 8.0 0.03 0.61 0.52 98 1007.6
20260507163044 64 46 0.0 0.0 0.01 0.59 0.50 98 1007.8
20260507161550 64 46 0.0 4.0 0.04 0.59 0.50 98 1007.8
20260507160040 65 128 0.0 1.0 0.03 0.57 0.49 98 1008.3
20260507154542 66 209 0.0 0.0 0.05 0.57 0.49 99 1008.1
20260507153038 66 209 0.0 0.0 0.07 0.57 0.49 99 1008.8
20260507151538 66 200 0.0 0.0 0.05 0.55 0.46 99 1009.1
20260507150038 66 200 0.0 0.0 0.06 0.55 0.46 99 1008.2
20260507144534 66 200 0.0 0.0 0.05 0.53 0.44 99 1008.4
20260507143033 66 200 0.0 0.0 0.04 0.51 0.42 99 1008.5
20260507141536 66 200 0.0 0.0 0.05 0.50 0.41 99 1008.2
20260507140036 66 200 0.0 0.0 0.07 0.49 0.40 99 1007.8
20260507134529 66 200 0.0 0.0 0.10 0.48 0.39 99 1008.2
20260507133028 66 200 0.0 0.0 0.13 0.47 0.38 99 1008.6
20260507131531 66 200 0.0 0.0 0.13 0.45 0.36 99 1008.9
20260507130029 66 200 0.0 0.0 0.09 0.41 0.32 99 1009.6
20260507124526 65 200 0.0 0.0 0.06 0.38 0.28 99 1009.0
20260507123025 65 200 0.0 0.0 0.02 0.34 0.25 99 1008.7
20260507121524 65 200 0.0 0.0 0.00 0.32 0.23 99 1008.9
20260507120024 65 200 0.0 0.0 0.00 0.32 0.23 99 1008.7
20260507114523 65 200 0.0 0.0 0.01 0.32 0.23 99 1008.7
20260507113026 65 200 0.0 0.0 0.01 0.32 0.23 99 1008.5
20260507111522 65 200 0.0 0.0 0.01 0.32 0.23 99 1008.6
20260507110020 65 200 0.0 0.0 0.01 0.32 0.23 99 1008.8
20260507104519 65 200 0.0 0.0 0.00 0.31 0.22 99 1008.6
20260507103019 65 200 0.0 0.0 0.02 0.31 0.22 98 1008.6
20260507101519 65 200 0.0 0.0 0.03 0.31 0.22 98 1008.5
20260507100018 65 200 0.0 0.0 0.03 0.31 0.22 98 1008.8
20260507094518 65 200 0.0 0.0 0.03 0.31 0.22 98 1008.6
20260507093018 65 200 0.0 0.0 0.02 0.28 0.20 98 1008.7
20260507091519 65 200 0.0 0.0 0.01 0.28 0.19 98 1008.3
20260507090014 65 200 0.0 0.0 0.02 0.28 0.19 98 1008.4
20260507084533 65 200 0.0 0.0 0.03 0.28 0.19 98 1008.5
20260507083013 65 200 0.0 0.0 0.02 0.27 0.18 98 1008.5
20260507081513 65 200 0.0 0.0 0.02 0.27 0.18 98 1008.7
20260507080009 65 200 0.0 0.0 0.01 0.26 0.17 98 1009.1
20260507074508 65 200 0.0 0.0 0.00 0.25 0.16 98 1009.0
20260507073007 65 200 0.0 0.0 0.00 0.25 0.16 98 1008.9
20260507071507 65 200 0.0 0.0 0.00 0.25 0.16 98 1009.3
20260507070010 65 200 0.0 0.0 0.01 0.25 0.16 98 1009.1
20260507064504 65 200 0.0 0.0 0.03 0.25 0.16 98 1009.6
20260507063005 65 200 0.0 0.0 0.11 0.25 0.16 98 1009.4
20260507061502 65 200 0.0 0.0 0.15 0.25 0.16 97 1010.6
20260507060001 66 200 0.0 0.0 0.14 0.24 0.15 97 1010.7
20260507054615 66 200 0.0 4.0 0.12 0.22 0.13 97 1010.0
20260507053107 66 296 0.0 2.0 0.05 0.15 0.06 97 1010.9
20260507051600 66 311 0.0 0.0 0.00 0.10 0.01 97 1010.5
20260507050058 66 311 0.0 0.0 0.01 0.10 0.01 96 1010.5
20260507044559 66 311 0.0 0.0 0.03 0.10 0.01 96 1010.6
20260507043055 66 311 0.0 0.0 0.06 0.10 0.01 96 1010.1
20260507041601 66 311 0.0 0.0 0.07 0.10 0.01 95 1010.9
20260507040051 67 313 0.0 3.0 0.06 0.09 0.00 94 1010.9
20260507034548 68 92 0.0 10.0 0.03 0.06 0.06 92 1012.3
20260507033048 69 211 0.0 2.0 0.01 0.04 0.04 91 1012.0
20260507031546 69 222 0.0 4.0 0.00 0.03 0.03 92 1011.5
20260507030046 69 313 0.0 1.0 0.01 0.03 0.03 93 1010.6
20260507024549 68 251 0.0 0.0 0.01 0.03 0.03 94 1011.3
20260507023046 68 251 0.0 0.0 0.01 0.03 0.03 94 1010.8
20260507021554 68 251 0.0 0.0 0.01 0.03 0.03 95 1010.8
20260507020104 68 251 0.0 0.0 0.00 0.02 0.02 93 1010.1
20260507014601 68 251 0.0 0.0 0.00 0.02 0.02 92 1010.1